contact:dominique.lefevre@mio.osupytheas.fr, maurice.libes@osupytheas.fr, didier.mallarino@osupytheas.fr
Project:EMSO http://www.emso-fr.org/EMSO-France
Depth: 2436.0 m
Title:EMSO Ligure Ouest : Data MII capteur MICROCAT
DateTime_Computer,Latitude,Longitude,Temperature,Conductivity,Pressure,DateTime_Instrument
DateTime_Computer,Latitude,Longitude,degC,S m-1,dbar,DateTime_Instrument
2021-07-05T00:03:00Z,42.805,6.029,13.3014,4.60019,2470.343,2021-7-05T02:04:15Z
2021-07-05T00:06:03Z,42.805,6.029,13.3010,4.60016,2470.343,2021-7-05T02:07:18Z
2021-07-05T00:09:06Z,42.805,6.029,13.3009,4.60015,2470.32,2021-7-05T02:10:21Z
2021-07-05T00:12:09Z,42.805,6.029,13.3008,4.60018,2470.357,2021-7-05T02:13:24Z
2021-07-05T00:15:12Z,42.805,6.029,13.3010,4.60033,2470.32,2021-7-05T02:16:28Z
2021-07-05T00:18:16Z,42.805,6.029,13.3010,4.60027,2470.32,2021-7-05T02:19:31Z
2021-07-05T00:21:19Z,42.805,6.029,13.3013,4.60050,2470.343,2021-7-05T02:22:34Z
2021-07-05T00:24:22Z,42.805,6.029,13.3020,4.60020,2470.343,2021-7-05T02:25:37Z
2021-07-05T00:27:25Z,42.805,6.029,13.3020,4.60019,2470.297,2021-7-05T02:28:40Z
2021-07-05T00:30:28Z,42.805,6.029,13.3034,4.60021,2470.334,2021-7-05T02:31:43Z
2021-07-05T00:33:31Z,42.805,6.029,13.3019,4.60022,2470.357,2021-7-05T02:34:46Z
2021-07-05T00:36:34Z,42.805,6.029,13.3012,4.60019,2470.357,2021-7-05T02:37:49Z
2021-07-05T00:39:37Z,42.805,6.029,13.3020,4.60042,2470.343,2021-7-05T02:40:53Z
2021-07-05T00:42:41Z,42.805,6.029,13.3011,4.60031,2470.366,2021-7-05T02:43:56Z
2021-07-05T00:45:44Z,42.805,6.029,13.3017,4.60012,2470.334,2021-7-05T02:46:59Z
2021-07-05T00:48:47Z,42.805,6.029,13.3009,4.60031,2470.31,2021-7-05T02:50:02Z
2021-07-05T00:51:50Z,42.805,6.029,13.3021,4.60017,2470.38,2021-7-05T02:53:05Z
2021-07-05T00:54:53Z,42.805,6.029,13.3019,4.60020,2470.343,2021-7-05T02:56:08Z
2021-07-05T00:57:56Z,42.805,6.029,13.3016,4.60019,2470.343,2021-7-05T02:59:11Z
2021-07-05T01:00:59Z,42.805,6.029,13.3015,4.60017,2470.357,2021-7-05T03:02:14Z
2021-07-05T01:04:02Z,42.805,6.029,13.3018,4.60016,2470.343,2021-7-05T03:05:17Z
2021-07-05T01:07:05Z,42.805,6.029,13.3014,4.60023,2470.38,2021-7-05T03:08:21Z
2021-07-05T01:10:09Z,42.805,6.029,13.3016,4.60026,2470.31,2021-7-05T03:11:24Z
2021-07-05T01:13:12Z,42.805,6.029,13.3010,4.60021,2470.357,2021-7-05T03:14:27Z
2021-07-05T01:16:15Z,42.805,6.029,13.3011,4.60023,2470.357,2021-7-05T03:17:30Z
2021-07-05T01:19:18Z,42.805,6.029,13.3015,4.60028,2470.39,2021-7-05T03:20:33Z
2021-07-05T01:22:21Z,42.805,6.029,13.3018,4.60029,2470.38,2021-7-05T03:23:36Z
2021-07-05T01:25:24Z,42.805,6.029,13.3015,4.60031,2470.353,2021-7-05T03:26:39Z
2021-07-05T01:28:27Z,42.805,6.029,13.3027,4.60020,2470.343,2021-7-05T03:29:42Z
2021-07-05T01:31:30Z,42.805,6.029,13.3014,4.60022,2470.38,2021-7-05T03:32:46Z
2021-07-05T01:34:33Z,42.805,6.029,13.3019,4.60021,2470.38,2021-7-05T03:35:49Z
2021-07-05T01:37:37Z,42.805,6.029,13.3019,4.60029,2470.334,2021-7-05T03:38:52Z
2021-07-05T01:40:40Z,42.805,6.029,13.3022,4.60051,2470.357,2021-7-05T03:41:55Z
2021-07-05T01:43:43Z,42.805,6.029,13.3019,4.60022,2470.343,2021-7-05T03:44:58Z
2021-07-05T01:46:46Z,42.805,6.029,13.3019,4.60042,2470.343,2021-7-05T03:48:01Z
2021-07-05T01:49:49Z,42.805,6.029,13.3013,4.60026,2470.334,2021-7-05T03:51:04Z
2021-07-05T01:52:52Z,42.805,6.029,13.3014,4.60022,2470.366,2021-7-05T03:54:07Z
2021-07-05T01:55:55Z,42.805,6.029,13.3016,4.60029,2470.38,2021-7-05T03:57:10Z
2021-07-05T01:58:58Z,42.805,6.029,13.3024,4.60039,2470.357,2021-7-05T04:00:14Z
2021-07-05T02:02:02Z,42.805,6.029,13.3014,4.60042,2470.366,2021-7-05T04:03:17Z
2021-07-05T02:05:05Z,42.805,6.029,13.3038,4.60031,2470.343,2021-7-05T04:06:20Z
2021-07-05T02:08:08Z,42.805,6.029,13.3014,4.60038,2470.357,2021-7-05T04:09:23Z
2021-07-05T02:11:11Z,42.805,6.029,13.3004,4.60026,2470.38,2021-7-05T04:12:26Z
2021-07-05T02:14:14Z,42.805,6.029,13.3015,4.60036,2470.39,2021-7-05T04:15:29Z
2021-07-05T02:17:17Z,42.805,6.029,13.3023,4.60042,2470.357,2021-7-05T04:18:32Z
2021-07-05T02:20:20Z,42.805,6.029,13.3014,4.60030,2470.343,2021-7-05T04:21:35Z
2021-07-05T02:23:23Z,42.805,6.029,13.3027,4.60044,2470.343,2021-7-05T04:24:38Z
2021-07-05T02:26:26Z,42.805,6.029,13.3005,4.60032,2470.32,2021-7-05T04:27:42Z
2021-07-05T02:29:30Z,42.805,6.029,13.3013,4.60035,2470.39,2021-7-05T04:30:45Z
2021-07-05T02:32:33Z,42.805,6.029,13.3029,4.60026,2470.413,2021-7-05T04:33:48Z
2021-07-05T02:35:36Z,42.805,6.029,13.3033,4.60019,2470.357,2021-7-05T04:36:51Z
2021-07-05T02:38:39Z,42.805,6.029,13.3019,4.60049,2470.39,2021-7-05T04:39:54Z
2021-07-05T02:41:42Z,42.805,6.029,13.3006,4.60022,2470.404,2021-7-05T04:42:57Z
2021-07-05T02:44:45Z,42.805,6.029,13.3014,4.60036,2470.413,2021-7-05T04:46:00Z
2021-07-05T02:47:48Z,42.805,6.029,13.3013,4.60031,2470.357,2021-7-05T04:49:03Z
2021-07-05T02:50:51Z,42.805,6.029,13.3004,4.60045,2470.39,2021-7-05T04:52:07Z
2021-07-05T02:53:55Z,42.805,6.029,13.3009,4.60052,2470.366,2021-7-05T04:55:10Z
2021-07-05T02:56:58Z,42.805,6.029,13.3020,4.60041,2470.38,2021-7-05T04:58:13Z
2021-07-05T03:00:01Z,42.805,6.029,13.3015,4.60031,2470.38,2021-7-05T05:01:16Z
2021-07-05T03:03:04Z,42.805,6.029,13.3016,4.60034,2470.437,2021-7-05T05:04:19Z
2021-07-05T03:06:07Z,42.805,6.029,13.3013,4.60019,2470.427,2021-7-05T05:07:22Z
2021-07-05T03:09:10Z,42.805,6.029,13.3021,4.60036,2470.366,2021-7-05T05:10:25Z
2021-07-05T03:12:13Z,42.805,6.029,13.3000,4.60029,2470.39,2021-7-05T05:13:28Z
2021-07-05T03:15:16Z,42.805,6.029,13.3018,4.60039,2470.38,2021-7-05T05:16:31Z
2021-07-05T03:18:19Z,42.805,6.029,13.3011,4.60028,2470.38,2021-7-05T05:19:35Z
2021-07-05T03:21:23Z,42.805,6.029,13.3010,4.60028,2470.39,2021-7-05T05:22:38Z
2021-07-05T03:24:26Z,42.805,6.029,13.3015,4.60026,2470.357,2021-7-05T05:25:41Z
2021-07-05T03:27:29Z,42.805,6.029,13.3012,4.60047,2470.404,2021-7-05T05:28:44Z
2021-07-05T03:30:32Z,42.805,6.029,13.3018,4.60041,2470.404,2021-7-05T05:31:47Z
2021-07-05T03:33:35Z,42.805,6.029,13.3004,4.60033,2470.404,2021-7-05T05:34:50Z
2021-07-05T03:36:38Z,42.805,6.029,13.3014,4.60036,2470.39,2021-7-05T05:37:53Z
2021-07-05T03:39:41Z,42.805,6.029,13.2998,4.60031,2470.366,2021-7-05T05:40:56Z
2021-07-05T03:42:44Z,42.805,6.029,13.3030,4.60024,2470.343,2021-7-05T05:44:00Z
2021-07-05T03:45:48Z,42.805,6.029,13.2999,4.60022,2470.45,2021-7-05T05:47:03Z
2021-07-05T03:48:51Z,42.805,6.029,13.3008,4.60027,2470.404,2021-7-05T05:50:06Z
2021-07-05T03:51:54Z,42.805,6.029,13.2995,4.60020,2470.38,2021-7-05T05:53:09Z
2021-07-05T03:54:57Z,42.805,6.029,13.3027,4.60029,2470.366,2021-7-05T05:56:12Z
2021-07-05T03:58:00Z,42.805,6.029,13.3036,4.60070,2470.39,2021-7-05T05:59:15Z
2021-07-05T04:01:03Z,42.805,6.029,13.3039,4.60035,2470.39,2021-7-05T06:02:18Z
2021-07-05T04:04:06Z,42.805,6.029,13.3024,4.60027,2470.366,2021-7-05T06:05:21Z
2021-07-05T04:07:09Z,42.805,6.029,13.3019,4.60036,2470.366,2021-7-05T06:08:25Z
2021-07-05T04:10:12Z,42.805,6.029,13.2993,4.60030,2470.38,2021-7-05T06:11:28Z
2021-07-05T04:13:16Z,42.805,6.029,13.2990,4.60021,2470.413,2021-7-05T06:14:31Z
2021-07-05T04:16:19Z,42.805,6.029,13.2994,4.60030,2470.39,2021-7-05T06:17:34Z
2021-07-05T04:19:22Z,42.805,6.029,13.2992,4.60014,2470.357,2021-7-05T06:20:37Z
2021-07-05T04:22:25Z,42.805,6.029,13.3028,4.60034,2470.343,2021-7-05T06:23:40Z
2021-07-05T04:25:28Z,42.805,6.029,13.3004,4.60026,2470.357,2021-7-05T06:26:43Z
2021-07-05T04:28:31Z,42.805,6.029,13.3024,4.60042,2470.366,2021-7-05T06:29:46Z
2021-07-05T04:31:34Z,42.805,6.029,13.3022,4.60040,2470.366,2021-7-05T06:32:49Z
2021-07-05T04:34:37Z,42.805,6.029,13.3061,4.60062,2470.404,2021-7-05T06:35:53Z
2021-07-05T04:37:41Z,42.805,6.029,13.3026,4.60036,2470.39,2021-7-05T06:38:56Z
2021-07-05T04:40:44Z,42.805,6.029,13.3045,4.60046,2470.343,2021-7-05T06:41:59Z
2021-07-05T04:43:47Z,42.805,6.029,13.3004,4.60036,2470.404,2021-7-05T06:45:02Z
2021-07-05T04:46:50Z,42.805,6.029,13.3011,4.60026,2470.357,2021-7-05T06:48:05Z
2021-07-05T04:49:53Z,42.805,6.029,13.3000,4.60036,2470.38,2021-7-05T06:51:08Z
2021-07-05T04:52:56Z,42.805,6.029,13.3027,4.60031,2470.366,2021-7-05T06:54:11Z
2021-07-05T04:55:59Z,42.805,6.029,13.2994,4.60026,2470.366,2021-7-05T06:57:14Z
2021-07-05T04:59:02Z,42.805,6.029,13.3012,4.60039,2470.404,2021-7-05T07:00:18Z
2021-07-05T05:02:06Z,42.805,6.029,13.3041,4.60059,2470.39,2021-7-05T07:03:21Z
2021-07-05T05:05:09Z,42.805,6.029,13.3003,4.60033,2470.413,2021-7-05T07:06:24Z
2021-07-05T05:08:12Z,42.805,6.029,13.2993,4.60049,2470.357,2021-7-05T07:09:27Z
2021-07-05T05:11:15Z,42.805,6.029,13.2998,4.60027,2470.366,2021-7-05T07:12:30Z
2021-07-05T05:14:18Z,42.805,6.029,13.3029,4.60033,2470.357,2021-7-05T07:15:33Z
2021-07-05T05:17:21Z,42.805,6.029,13.3037,4.60053,2470.366,2021-7-05T07:18:36Z
2021-07-05T05:20:24Z,42.805,6.029,13.3013,4.60033,2470.366,2021-7-05T07:21:39Z
2021-07-05T05:23:27Z,42.805,6.029,13.3016,4.60033,2470.334,2021-7-05T07:24:42Z
2021-07-05T05:26:30Z,42.805,6.029,13.3004,4.60040,2470.366,2021-7-05T07:27:46Z
2021-07-05T05:29:34Z,42.805,6.029,13.3004,4.60039,2470.38,2021-7-05T07:30:49Z
2021-07-05T05:32:37Z,42.805,6.029,13.2991,4.60052,2470.357,2021-7-05T07:33:52Z
2021-07-05T05:35:40Z,42.805,6.029,13.3004,4.60026,2470.343,2021-7-05T07:36:55Z
2021-07-05T05:38:43Z,42.805,6.029,13.2987,4.60024,2470.38,2021-7-05T07:39:58Z
2021-07-05T05:41:46Z,42.805,6.029,13.3034,4.60017,2470.38,2021-7-05T07:43:01Z
2021-07-05T05:44:49Z,42.805,6.029,13.3048,4.60033,2470.357,2021-7-05T07:46:04Z
2021-07-05T05:47:52Z,42.805,6.029,13.3042,4.60052,2470.39,2021-7-05T07:49:07Z
2021-07-05T05:50:55Z,42.805,6.029,13.3000,4.60054,2470.357,2021-7-05T07:52:11Z
2021-07-05T05:53:59Z,42.805,6.029,13.3046,4.60042,2470.357,2021-7-05T07:55:14Z
2021-07-05T05:57:02Z,42.805,6.029,13.3044,4.60036,2470.357,2021-7-05T07:58:17Z
2021-07-05T06:00:05Z,42.805,6.029,13.3044,4.60043,2470.357,2021-7-05T08:01:20Z
2021-07-05T06:03:08Z,42.805,6.029,13.3031,4.60046,2470.357,2021-7-05T08:04:23Z
2021-07-05T06:06:11Z,42.805,6.029,13.3049,4.60069,2470.357,2021-7-05T08:07:26Z
2021-07-05T06:09:14Z,42.805,6.029,13.3047,4.60044,2470.366,2021-7-05T08:10:29Z
2021-07-05T06:12:17Z,42.805,6.029,13.3034,4.60058,2470.357,2021-7-05T08:13:32Z
2021-07-05T06:15:20Z,42.805,6.029,13.3030,4.60031,2470.343,2021-7-05T08:16:36Z
2021-07-05T06:18:23Z,42.805,6.029,13.3048,4.60039,2470.334,2021-7-05T08:19:39Z
2021-07-05T06:21:27Z,42.805,6.029,13.3045,4.60041,2470.32,2021-7-05T08:22:42Z
2021-07-05T06:24:30Z,42.805,6.029,13.3050,4.60036,2470.38,2021-7-05T08:25:45Z
2021-07-05T06:27:33Z,42.805,6.029,13.3042,4.60045,2470.334,2021-7-05T08:28:48Z
2021-07-05T06:30:36Z,42.805,6.029,13.3014,4.60036,2470.334,2021-7-05T08:31:51Z
2021-07-05T06:33:39Z,42.805,6.029,13.3051,4.60036,2470.343,2021-7-05T08:34:54Z
2021-07-05T06:36:42Z,42.805,6.029,13.3054,4.60035,2470.31,2021-7-05T08:37:57Z
2021-07-05T06:39:45Z,42.805,6.029,13.3023,4.60046,2470.357,2021-7-05T08:41:00Z
2021-07-05T06:42:48Z,42.805,6.029,13.3026,4.60031,2470.306,2021-7-05T08:44:04Z
2021-07-05T06:45:52Z,42.805,6.029,13.3038,4.60026,2470.32,2021-7-05T08:47:07Z
2021-07-05T06:48:55Z,42.805,6.029,13.3021,4.60028,2470.31,2021-7-05T08:50:10Z
2021-07-05T06:51:58Z,42.805,6.029,13.3024,4.60026,2470.32,2021-7-05T08:53:13Z
2021-07-05T06:55:01Z,42.805,6.029,13.3026,4.60026,2470.334,2021-7-05T08:56:16Z
2021-07-05T06:58:04Z,42.805,6.029,13.3005,4.60031,2470.32,2021-7-05T08:59:19Z
2021-07-05T07:01:07Z,42.805,6.029,13.3013,4.60059,2470.31,2021-7-05T09:02:22Z
2021-07-05T07:04:10Z,42.805,6.029,13.3046,4.60040,2470.32,2021-7-05T09:05:25Z
2021-07-05T07:07:13Z,42.805,6.029,13.3027,4.60026,2470.343,2021-7-05T09:08:28Z
2021-07-05T07:10:16Z,42.805,6.029,13.3033,4.60040,2470.297,2021-7-05T09:11:32Z
2021-07-05T07:13:20Z,42.805,6.029,13.3031,4.60034,2470.334,2021-7-05T09:14:35Z
2021-07-05T07:16:23Z,42.805,6.029,13.3026,4.60048,2470.297,2021-7-05T09:17:38Z
2021-07-05T07:19:26Z,42.805,6.029,13.3033,4.60042,2470.343,2021-7-05T09:20:41Z
2021-07-05T07:22:29Z,42.805,6.029,13.3028,4.60039,2470.287,2021-7-05T09:23:44Z
2021-07-05T07:25:32Z,42.805,6.029,13.3039,4.60036,2470.334,2021-7-05T09:26:47Z
2021-07-05T07:28:35Z,42.805,6.029,13.3031,4.60054,2470.31,2021-7-05T09:29:50Z
2021-07-05T07:31:38Z,42.805,6.029,13.3032,4.60034,2470.334,2021-7-05T09:32:53Z
2021-07-05T07:34:41Z,42.805,6.029,13.3040,4.60039,2470.297,2021-7-05T09:35:57Z
2021-07-05T07:37:44Z,42.805,6.029,13.3043,4.60033,2470.297,2021-7-05T09:39:00Z
2021-07-05T07:40:48Z,42.805,6.029,13.3040,4.60037,2470.297,2021-7-05T09:42:03Z
2021-07-05T07:43:51Z,42.805,6.029,13.3042,4.60024,2470.297,2021-7-05T09:45:06Z
2021-07-05T07:46:54Z,42.805,6.029,13.3040,4.60041,2470.25,2021-7-05T09:48:09Z
2021-07-05T07:49:57Z,42.805,6.029,13.3049,4.60026,2470.287,2021-7-05T09:51:12Z
2021-07-05T07:53:00Z,42.805,6.029,13.3057,4.60031,2470.31,2021-7-05T09:54:15Z
2021-07-05T07:56:03Z,42.805,6.029,13.3056,4.60029,2470.273,2021-7-05T09:57:18Z
2021-07-05T07:59:06Z,42.805,6.029,13.3051,4.60043,2470.297,2021-7-05T10:00:21Z
2021-07-05T08:02:09Z,42.805,6.029,13.3054,4.60041,2470.297,2021-7-05T10:03:25Z
2021-07-05T08:05:13Z,42.805,6.029,13.3056,4.60027,2470.273,2021-7-05T10:06:28Z
2021-07-05T08:08:16Z,42.805,6.029,13.3054,4.60052,2470.273,2021-7-05T10:09:31Z
2021-07-05T08:11:19Z,42.805,6.029,13.3051,4.60026,2470.297,2021-7-05T10:12:34Z
2021-07-05T08:14:22Z,42.805,6.029,13.3056,4.60044,2470.31,2021-7-05T10:15:37Z
2021-07-05T08:17:25Z,42.805,6.029,13.3053,4.60052,2470.287,2021-7-05T10:18:40Z
2021-07-05T08:20:28Z,42.805,6.029,13.3055,4.60054,2470.273,2021-7-05T10:21:43Z
2021-07-05T08:23:31Z,42.805,6.029,13.3032,4.60022,2470.264,2021-7-05T10:24:46Z
2021-07-05T08:26:34Z,42.805,6.029,13.3034,4.60039,2470.287,2021-7-05T10:27:50Z
2021-07-05T08:29:38Z,42.805,6.029,13.3035,4.60026,2470.273,2021-7-05T10:30:53Z
2021-07-05T08:32:41Z,42.805,6.029,13.3038,4.60054,2470.273,2021-7-05T10:33:56Z
2021-07-05T08:35:44Z,42.805,6.029,13.3050,4.60035,2470.25,2021-7-05T10:36:59Z
2021-07-05T08:38:47Z,42.805,6.029,13.3047,4.60029,2470.287,2021-7-05T10:40:02Z
2021-07-05T08:41:50Z,42.805,6.029,13.3037,4.60027,2470.264,2021-7-05T10:43:05Z
2021-07-05T08:44:53Z,42.805,6.029,13.3051,4.60055,2470.287,2021-7-05T10:46:08Z
2021-07-05T08:47:56Z,42.805,6.029,13.3041,4.60033,2470.273,2021-7-05T10:49:11Z
2021-07-05T08:50:59Z,42.805,6.029,13.3046,4.60026,2470.264,2021-7-05T10:52:15Z
2021-07-05T08:54:02Z,42.805,6.029,13.3043,4.60034,2470.24,2021-7-05T10:55:18Z
2021-07-05T08:57:06Z,42.805,6.029,13.3023,4.60056,2470.273,2021-7-05T10:58:21Z
2021-07-05T09:00:09Z,42.805,6.029,13.3045,4.60021,2470.24,2021-7-05T11:01:24Z
2021-07-05T09:03:12Z,42.805,6.029,13.3024,4.60044,2470.287,2021-7-05T11:04:27Z
2021-07-05T09:06:15Z,42.805,6.029,13.3051,4.60039,2470.287,2021-7-05T11:07:30Z
2021-07-05T09:09:18Z,42.805,6.029,13.3035,4.60034,2470.227,2021-7-05T11:10:33Z
2021-07-05T09:12:21Z,42.805,6.029,13.3039,4.60046,2470.25,2021-7-05T11:13:36Z
2021-07-05T09:15:24Z,42.805,6.029,13.3040,4.60025,2470.264,2021-7-05T11:16:40Z
2021-07-05T09:18:27Z,42.805,6.029,13.3025,4.60046,2470.273,2021-7-05T11:19:43Z
2021-07-05T09:21:31Z,42.805,6.029,13.3034,4.60058,2470.25,2021-7-05T11:22:46Z
2021-07-05T09:24:34Z,42.805,6.029,13.3053,4.60093,2470.24,2021-7-05T11:25:49Z
2021-07-05T09:27:37Z,42.805,6.029,13.3041,4.60040,2470.227,2021-7-05T11:28:52Z
2021-07-05T09:30:40Z,42.805,6.029,13.3048,4.60025,2470.24,2021-7-05T11:31:55Z
2021-07-05T09:33:43Z,42.805,6.029,13.3044,4.60026,2470.24,2021-7-05T11:34:58Z
2021-07-05T09:36:46Z,42.805,6.029,13.3021,4.60029,2470.264,2021-7-05T11:38:01Z
2021-07-05T09:39:49Z,42.805,6.029,13.3040,4.60039,2470.227,2021-7-05T11:41:05Z
2021-07-05T09:42:52Z,42.805,6.029,13.3042,4.60044,2470.264,2021-7-05T11:44:08Z
2021-07-05T09:45:56Z,42.805,6.029,13.3040,4.60041,2470.24,2021-7-05T11:47:11Z
2021-07-05T09:48:59Z,42.805,6.029,13.3036,4.60035,2470.264,2021-7-05T11:50:14Z
2021-07-05T09:52:02Z,42.805,6.029,13.3025,4.60045,2470.264,2021-7-05T11:53:17Z
2021-07-05T09:55:05Z,42.805,6.029,13.3034,4.60024,2470.24,2021-7-05T11:56:20Z
2021-07-05T09:58:08Z,42.805,6.029,13.3021,4.60027,2470.264,2021-7-05T11:59:23Z
2021-07-05T10:01:11Z,42.805,6.029,13.3039,4.60032,2470.227,2021-7-05T12:02:26Z
2021-07-05T10:04:14Z,42.805,6.029,13.3040,4.60044,2470.217,2021-7-05T12:05:29Z
2021-07-05T10:07:17Z,42.805,6.029,13.3041,4.60038,2470.25,2021-7-05T12:08:33Z
2021-07-05T10:10:21Z,42.805,6.029,13.3054,4.60039,2470.264,2021-7-05T12:11:36Z
2021-07-05T10:13:24Z,42.805,6.029,13.3048,4.60037,2470.227,2021-7-05T12:14:39Z
2021-07-05T10:16:27Z,42.805,6.029,13.3042,4.60044,2470.227,2021-7-05T12:17:42Z
2021-07-05T10:19:30Z,42.805,6.029,13.3062,4.60027,2470.227,2021-7-05T12:20:45Z
2021-07-05T10:22:33Z,42.805,6.029,13.3036,4.60044,2470.24,2021-7-05T12:23:48Z
2021-07-05T10:25:36Z,42.805,6.029,13.3035,4.60033,2470.24,2021-7-05T12:26:51Z
2021-07-05T10:28:39Z,42.805,6.029,13.3029,4.60014,2470.227,2021-7-05T12:29:54Z
2021-07-05T10:31:42Z,42.805,6.029,13.3046,4.60029,2470.217,2021-7-05T12:32:58Z
2021-07-05T10:34:46Z,42.805,6.029,13.3034,4.60019,2470.227,2021-7-05T12:36:01Z
2021-07-05T10:37:49Z,42.805,6.029,13.3021,4.60032,2470.217,2021-7-05T12:39:04Z
2021-07-05T10:40:52Z,42.805,6.029,13.3026,4.60042,2470.227,2021-7-05T12:42:07Z
2021-07-05T10:43:55Z,42.805,6.029,13.3039,4.60037,2470.273,2021-7-05T12:45:10Z
2021-07-05T10:46:58Z,42.805,6.029,13.3024,4.60040,2470.24,2021-7-05T12:48:13Z
2021-07-05T10:50:01Z,42.805,6.029,13.3049,4.60034,2470.264,2021-7-05T12:51:16Z
2021-07-05T10:53:04Z,42.805,6.029,13.3032,4.60029,2470.25,2021-7-05T12:54:19Z
2021-07-05T10:56:07Z,42.805,6.029,13.3044,4.60026,2470.264,2021-7-05T12:57:23Z
2021-07-05T10:59:10Z,42.805,6.029,13.3031,4.60039,2470.25,2021-7-05T13:00:26Z
2021-07-05T11:02:14Z,42.805,6.029,13.3038,4.60049,2470.24,2021-7-05T13:03:29Z
2021-07-05T11:05:17Z,42.805,6.029,13.3042,4.60037,2470.25,2021-7-05T13:06:32Z
2021-07-05T11:08:20Z,42.805,6.029,13.3035,4.60039,2470.217,2021-7-05T13:09:35Z
2021-07-05T11:11:23Z,42.805,6.029,13.3028,4.60036,2470.227,2021-7-05T13:12:38Z
2021-07-05T11:14:26Z,42.805,6.029,13.3006,4.60050,2470.273,2021-7-05T13:15:41Z
2021-07-05T11:17:29Z,42.805,6.029,13.3026,4.60042,2470.227,2021-7-05T13:18:44Z
2021-07-05T11:20:32Z,42.805,6.029,13.3032,4.60029,2470.25,2021-7-05T13:21:48Z
2021-07-05T11:23:36Z,42.805,6.029,13.3044,4.60036,2470.264,2021-7-05T13:24:51Z
2021-07-05T11:26:39Z,42.805,6.029,13.3019,4.60034,2470.264,2021-7-05T13:27:54Z
2021-07-05T11:29:42Z,42.805,6.029,13.3034,4.60022,2470.264,2021-7-05T13:30:57Z
2021-07-05T11:32:45Z,42.805,6.029,13.3014,4.60049,2470.25,2021-7-05T13:34:00Z
2021-07-05T11:35:48Z,42.805,6.029,13.3016,4.60023,2470.25,2021-7-05T13:37:03Z
2021-07-05T11:38:51Z,42.805,6.029,13.3026,4.60025,2470.24,2021-7-05T13:40:06Z
2021-07-05T11:41:54Z,42.805,6.029,13.3031,4.60029,2470.24,2021-7-05T13:43:09Z
2021-07-05T11:44:57Z,42.805,6.029,13.3034,4.60031,2470.227,2021-7-05T13:46:13Z
2021-07-05T11:48:00Z,42.805,6.029,13.3021,4.60040,2470.264,2021-7-05T13:49:16Z
2021-07-05T11:51:04Z,42.805,6.029,13.3036,4.60025,2470.273,2021-7-05T13:52:19Z
2021-07-05T11:54:07Z,42.805,6.029,13.3018,4.60028,2470.24,2021-7-05T13:55:22Z
2021-07-05T11:57:10Z,42.805,6.029,13.3029,4.60024,2470.227,2021-7-05T13:58:25Z
2021-07-05T12:00:13Z,42.805,6.029,13.3029,4.60024,2470.273,2021-7-05T14:01:28Z
2021-07-05T12:03:16Z,42.805,6.029,13.3024,4.60020,2470.287,2021-7-05T14:04:31Z
2021-07-05T12:06:19Z,42.805,6.029,13.3014,4.60029,2470.264,2021-7-05T14:07:34Z
2021-07-05T12:09:22Z,42.805,6.029,13.3021,4.60031,2470.25,2021-7-05T14:10:37Z
2021-07-05T12:12:25Z,42.805,6.029,13.3024,4.60023,2470.25,2021-7-05T14:13:41Z
2021-07-05T12:15:29Z,42.805,6.029,13.3031,4.60024,2470.264,2021-7-05T14:16:44Z
2021-07-05T12:18:32Z,42.805,6.029,13.3023,4.60026,2470.264,2021-7-05T14:19:47Z
2021-07-05T12:21:35Z,42.805,6.029,13.3030,4.60026,2470.287,2021-7-05T14:22:50Z
2021-07-05T12:24:38Z,42.805,6.029,13.3039,4.60024,2470.25,2021-7-05T14:25:53Z
2021-07-05T12:27:41Z,42.805,6.029,13.3024,4.60024,2470.264,2021-7-05T14:28:56Z
2021-07-05T12:30:44Z,42.805,6.029,13.3030,4.60023,2470.227,2021-7-05T14:31:59Z
2021-07-05T12:33:47Z,42.805,6.029,13.3027,4.60024,2470.227,2021-7-05T14:35:02Z
2021-07-05T12:36:50Z,42.805,6.029,13.3018,4.60027,2470.287,2021-7-05T14:38:06Z
2021-07-05T12:39:54Z,42.805,6.029,13.3026,4.60027,2470.227,2021-7-05T14:41:09Z
2021-07-05T12:42:57Z,42.805,6.029,13.3029,4.60029,2470.287,2021-7-05T14:44:12Z
2021-07-05T12:46:00Z,42.805,6.029,13.3038,4.60033,2470.287,2021-7-05T14:47:15Z
2021-07-05T12:49:03Z,42.805,6.029,13.3037,4.60028,2470.31,2021-7-05T14:50:18Z
2021-07-05T12:52:06Z,42.805,6.029,13.3026,4.60021,2470.25,2021-7-05T14:53:21Z
2021-07-05T12:55:09Z,42.805,6.029,13.3049,4.60021,2470.31,2021-7-05T14:56:24Z
2021-07-05T12:58:12Z,42.805,6.029,13.3024,4.60021,2470.264,2021-7-05T14:59:27Z
2021-07-05T13:01:15Z,42.805,6.029,13.3022,4.60022,2470.273,2021-7-05T15:02:31Z
2021-07-05T13:04:19Z,42.805,6.029,13.3015,4.60029,2470.287,2021-7-05T15:05:34Z
2021-07-05T13:07:22Z,42.805,6.029,13.3022,4.60026,2470.297,2021-7-05T15:08:37Z
2021-07-05T13:10:25Z,42.805,6.029,13.3027,4.60027,2470.32,2021-7-05T15:11:40Z
2021-07-05T13:13:28Z,42.805,6.029,13.3023,4.60028,2470.297,2021-7-05T15:14:43Z
2021-07-05T13:16:31Z,42.805,6.029,13.3021,4.60023,2470.31,2021-7-05T15:17:46Z
2021-07-05T13:19:34Z,42.805,6.029,13.3016,4.60026,2470.297,2021-7-05T15:20:49Z
2021-07-05T13:22:37Z,42.805,6.029,13.3022,4.60029,2470.297,2021-7-05T15:23:52Z
2021-07-05T13:25:40Z,42.805,6.029,13.3015,4.60019,2470.297,2021-7-05T15:26:56Z
2021-07-05T13:28:44Z,42.805,6.029,13.3012,4.60020,2470.297,2021-7-05T15:29:59Z
2021-07-05T13:31:47Z,42.805,6.029,13.3010,4.60022,2470.273,2021-7-05T15:33:02Z
2021-07-05T13:34:50Z,42.805,6.029,13.3014,4.60015,2470.31,2021-7-05T15:36:05Z
2021-07-05T13:37:53Z,42.805,6.029,13.3014,4.60021,2470.287,2021-7-05T15:39:08Z
2021-07-05T13:40:56Z,42.805,6.029,13.3018,4.60026,2470.31,2021-7-05T15:42:11Z
2021-07-05T13:43:59Z,42.805,6.029,13.3019,4.60021,2470.31,2021-7-05T15:45:14Z
2021-07-05T13:47:02Z,42.805,6.029,13.3009,4.60019,2470.297,2021-7-05T15:48:17Z
2021-07-05T13:50:05Z,42.805,6.029,13.3013,4.60046,2470.31,2021-7-05T15:51:21Z
2021-07-05T13:53:09Z,42.805,6.029,13.3021,4.60019,2470.31,2021-7-05T15:54:24Z
2021-07-05T13:56:12Z,42.805,6.029,13.3017,4.60021,2470.343,2021-7-05T15:57:27Z
2021-07-05T13:59:15Z,42.805,6.029,13.3014,4.60029,2470.334,2021-7-05T16:00:30Z
2021-07-05T14:02:18Z,42.805,6.029,13.3009,4.60019,2470.32,2021-7-05T16:03:33Z
2021-07-05T14:05:21Z,42.805,6.029,13.3011,4.60019,2470.31,2021-7-05T16:06:36Z
2021-07-05T14:08:24Z,42.805,6.029,13.3010,4.60014,2470.32,2021-7-05T16:09:39Z
2021-07-05T14:11:27Z,42.805,6.029,13.3011,4.60021,2470.32,2021-7-05T16:12:42Z
2021-07-05T14:14:30Z,42.805,6.029,13.3009,4.60016,2470.334,2021-7-05T16:15:46Z
2021-07-05T14:17:34Z,42.805,6.029,13.3015,4.60016,2470.33,2021-7-05T16:18:49Z
2021-07-05T14:20:37Z,42.805,6.029,13.3016,4.60029,2470.31,2021-7-05T16:21:52Z
2021-07-05T14:23:40Z,42.805,6.029,13.3013,4.60026,2470.334,2021-7-05T16:24:55Z
2021-07-05T14:26:43Z,42.805,6.029,13.3015,4.60035,2470.334,2021-7-05T16:27:58Z
2021-07-05T14:29:46Z,42.805,6.029,13.3016,4.60014,2470.32,2021-7-05T16:31:01Z
2021-07-05T14:32:49Z,42.805,6.029,13.3011,4.60016,2470.334,2021-7-05T16:34:04Z
2021-07-05T14:35:52Z,42.805,6.029,13.3017,4.60039,2470.343,2021-7-05T16:37:07Z
2021-07-05T14:38:55Z,42.805,6.029,13.3018,4.60027,2470.31,2021-7-05T16:40:11Z
2021-07-05T14:41:59Z,42.805,6.029,13.3018,4.60023,2470.334,2021-7-05T16:43:14Z
2021-07-05T14:45:02Z,42.805,6.029,13.3024,4.60033,2470.343,2021-7-05T16:46:17Z
2021-07-05T14:48:05Z,42.805,6.029,13.3015,4.60036,2470.334,2021-7-05T16:49:20Z
2021-07-05T14:51:08Z,42.805,6.029,13.3019,4.60032,2470.297,2021-7-05T16:52:23Z
2021-07-05T14:54:11Z,42.805,6.029,13.3013,4.60028,2470.334,2021-7-05T16:55:26Z
2021-07-05T14:57:14Z,42.805,6.029,13.3021,4.60028,2470.343,2021-7-05T16:58:29Z
2021-07-05T15:00:17Z,42.805,6.029,13.3014,4.60030,2470.343,2021-7-05T17:01:32Z
2021-07-05T15:03:20Z,42.805,6.029,13.3012,4.60045,2470.343,2021-7-05T17:04:36Z
2021-07-05T15:06:24Z,42.805,6.029,13.3018,4.60032,2470.38,2021-7-05T17:07:39Z
2021-07-05T15:09:27Z,42.805,6.029,13.3010,4.60035,2470.343,2021-7-05T17:10:42Z
2021-07-05T15:12:30Z,42.805,6.029,13.3023,4.60031,2470.357,2021-7-05T17:13:45Z
2021-07-05T15:15:33Z,42.805,6.029,13.3007,4.60033,2470.343,2021-7-05T17:16:48Z